Location: Unspecified
(0.0000°N, 0.0000°E)
Time: 08:13:23
(UTC+00:00)

A-11 Canister half - All Passes

Search period start: 05 May 2015 00:00
Search period end: 15 May 2015 00:00
Orbit: 1515 x 1685 km, 47.2° (Epoch: 04 May)

Date Brightness Start Highest point End Pass type
(mag) Time Alt. Az. Time Alt. Az. Time Alt. Az.
05 May - 00:44:53 10° SW 00:47:10 10° SW 00:48:27 10° SSW night (unlit)
05 May - 09:18:08 10° SSW 09:27:15 61° SE 09:36:20 10° NE daylight
05 May - 11:24:37 10° WSW 11:32:11 27° NW 11:39:27 10° N daylight
05 May - 20:04:59 10° N 20:12:52 27° NE 20:21:12 10° ESE visible
05 May - 22:08:02 10° NW 22:18:05 67° SW 22:28:07 10° SSE visible
06 May - 00:20:10 10° WSW 00:24:06 12° SW 00:27:06 10° SSW night (unlit)
06 May - 08:55:20 10° SSW 09:04:22 56° SE 09:13:22 10° NE daylight
06 May - 11:01:24 10° WSW 11:09:15 30° NW 11:16:50 10° N daylight
06 May - 19:42:23 10° N 19:49:53 25° NE 19:57:54 10° E visible
06 May - 21:45:04 10° NW 21:55:09 73° SW 22:05:16 10° SSE visible
06 May - 23:56:05 10° WSW 00:01:02 14° SW 00:05:08 10° SSW night (unlit)
07 May - 08:32:33 10° SSW 08:41:29 51° SE 08:50:22 10° ENE daylight
07 May - 10:38:15 10° WSW 10:46:20 32° NW 10:54:11 10° NNE daylight
07 May - 19:19:49 10° N 19:26:52 23° NE 19:34:31 10° E visible
07 May - 21:22:06 10° NW 21:32:12 78° SW 21:42:24 10° SE visible
07 May - 23:32:16 10° WSW 23:37:59 15° SW 23:42:56 10° SSW night (unlit)
08 May - 08:09:47 10° SSW 08:18:35 47° SE 08:27:21 10° ENE daylight
08 May - 10:15:07 10° WSW 10:23:24 35° NW 10:31:30 10° NNE daylight
08 May - 18:57:18 10° N 19:03:53 20° NE 19:11:05 10° E visible
08 May - 20:59:10 10° NW 21:09:17 84° SW 21:19:30 10° SE visible
08 May - 23:08:37 10° W 23:14:57 17° SW 23:20:36 10° S visible
09 May - 07:47:03 10° SSW 07:55:41 43° SE 08:04:19 10° ENE daylight
09 May - 09:52:00 10° WSW 10:00:30 39° NW 10:08:49 10° NNE daylight
09 May - 18:34:52 10° N 18:40:52 18° NE 18:47:35 10° E visible
09 May - 20:36:15 10° NW 20:46:21 90° ENE 20:56:35 10° SE visible
09 May - 22:45:03 10° W 22:51:55 19° SW 22:58:11 10° S visible
10 May - 07:24:18 10° SSW 07:32:47 39° SE 07:41:15 10° ENE daylight
10 May - 09:28:55 10° WSW 09:37:36 43° NW 09:46:06 10° NNE daylight
10 May - 18:12:28 10° N 18:17:51 17° NE 18:23:59 10° E visible
10 May - 20:13:22 10° NW 20:23:25 84° NE 20:33:40 10° SE visible
10 May - 22:21:35 10° W 22:28:54 21° SW 22:35:41 10° S visible
11 May - 07:01:35 10° SSW 07:09:52 36° SE 07:18:10 10° ENE daylight
11 May - 09:05:51 10° WSW 09:14:42 47° NW 09:23:22 10° NNE daylight
11 May - 17:50:12 10° NNE 17:54:49 15° NE 18:00:17 10° ENE daylight
11 May - 19:50:30 10° NW 20:00:30 78° NE 20:10:42 10° SE visible
11 May - 21:58:11 10° W 22:05:53 23° SW 22:13:08 10° S visible
12 May - 06:38:53 10° SSW 06:46:56 33° SE 06:55:02 10° ENE daylight
12 May - 08:42:49 10° WSW 08:51:48 51° NW 09:00:37 10° NNE daylight
12 May - 17:28:05 10° NNE 17:31:47 13° NE 17:36:23 10° ENE daylight
12 May - 19:27:38 10° NNW 19:37:34 72° NE 19:47:43 10° SE visible
12 May - 21:34:51 10° W 21:42:53 25° SW 21:50:32 10° S visible
13 May - 06:16:13 10° S 06:24:00 30° SE 06:31:53 10° ENE daylight
13 May - 08:19:48 10° SW 08:28:55 56° NW 08:37:51 10° NNE daylight
13 May - 17:06:16 10° NNE 17:08:44 11° NE 17:12:09 10° ENE daylight
13 May - 19:04:48 10° NNW 19:14:38 66° NE 19:24:44 10° SE visible
13 May - 21:11:33 10° WNW 21:19:53 28° SW 21:27:54 10° S visible
14 May - 05:53:34 10° S 06:01:04 27° SE 06:08:42 10° ENE daylight
14 May - 07:56:48 10° SW 08:06:03 61° NW 08:15:04 10° NNE daylight
14 May - 18:41:59 10° NNW 18:51:43 61° NE 19:01:43 10° SE visible
14 May - 20:48:19 10° WNW 20:56:54 30° SW 21:05:15 10° S visible
